Simultaneous Nadir Overpasses (SNOs) Predictions

Prediction of SNOs between LANDSAT-8 and METOP-A Satellite Orbit:

Table of predicted SNOs for the next 14.0 days since TLE Epoch: 8/14/2015
Index Date (LANDSAT-8) Time (LANDSAT-8) Lat,Lon (LANDSAT-8) SZA (LANDSAT-8 ) Date (METOP-A) Time (METOP-A) Lat,Lon (METOP-A) SZA (METOP-A ) Distance(km) Time Diff (sec)
1 08/15/2015 18:13:47 -81.24, 128.40 110.57 08/15/2015 18:13:19 -81.23, 128.59 110.57 3.27 28
2 08/15/2015 19:03:13 81.24, -63.84 69.46 08/15/2015 19:03:59 81.24, -63.92 69.47 1.42 46
3 08/18/2015 13:48:04 -81.23,-165.26 109.68 08/18/2015 13:47:41 -81.23,-165.17 109.68 1.43 23
4 08/18/2015 14:37:30 81.24, 2.48 70.35 08/18/2015 14:38:21 81.23, 2.30 70.35 3.03 51
5 08/21/2015 09:22:21 -81.22, -98.96 108.77 08/21/2015 09:22:03 -81.22, -98.96 108.77 0.35 18
6
